Home   Weather   Oran   Past weeks

Flag for Algeria Past Weather in Oran, Algeria — Yesterday and Last 2 Weeks

Now
59 °F

Passing clouds.


Feels Like: 59 °F
Forecast: 59 / 74 °F
Wind: 2 mph from North

Location: Oran / Es Senia

Current Time: Apr 24, 2017 at 1:11:11 am

Latest Report: Apr 24, 2017 at 12:30 am


Visibility: N/A

Pressure: 30.01 "Hg

Humidity: 88%

Dew Point: 55 °F

Location of OranLocation

Past Weather in Oran — Graph

°F

Oran Temperature Yesterday

Maximum temperature yesterday: 73 °F (at 1:00 pm)
Minimum temperature yesterday: 57 °F (at 12:30 am)
Average temperature yesterday: 66 °F

High & Low Weather Summary for the Past Weeks

 TemperatureHumidityPressure
High84 °F (Apr 13, 1:00 pm)100% (Apr 9, 5:30 am)30.21 "Hg (Apr 9, 5:30 am)
Low48 °F (Apr 9, 5:30 am)19% (Apr 13, 1:00 pm)29.83 "Hg (Apr 18, 4:30 pm)
Average64 °F71%30.07 "Hg
* Reported Apr 8 11:00 pm — Apr 23 11:30 pm, Oran, Weather by CustomWeather, © 2017

Note: Actual official high and low records may vary slightly from our data, if they occured in-between our weather recording intervals... More about our weather records

Advertising

Oran Weather History for the Previous 24 Hours

Scroll right to see more
 ConditionsComfort  
Time TempWeatherWind HumidityBarometerVisibility
11:30 pm
Sun, Apr 23
57 °FPassing clouds.No wind82%30.01 "HgN/A
11:00 pm59 °FPassing clouds.No wind77%30.01 "HgN/A
10:30 pm59 °FPassing clouds.2 mph77%30.01 "HgN/A
9:30 pm63 °FPassing clouds.3 mph64%30.01 "HgN/A
9:00 pm64 °FPassing clouds.6 mph60%29.98 "HgN/A
8:30 pm64 °FPassing clouds.7 mph60%29.98 "HgN/A
8:00 pm64 °FPassing clouds.7 mph64%29.98 "HgN/A
7:30 pm64 °FPassing clouds.7 mph68%29.98 "HgN/A
7:00 pm66 °FScattered clouds.8 mph68%29.98 "HgN/A
6:30 pm66 °FScattered clouds.9 mph68%29.98 "HgN/A
6:00 pm68 °FScattered clouds.9 mph64%29.95 "HgN/A
5:30 pm68 °FBroken clouds.10 mph64%29.98 "HgN/A
5:00 pm68 °FBroken clouds.9 mph64%29.98 "HgN/A
4:30 pm68 °FBroken clouds.12 mph69%29.98 "HgN/A
4:00 pm68 °FBroken clouds.10 mph64%29.98 "HgN/A
3:30 pm68 °FBroken clouds.13 mph64%29.98 "HgN/A
3:00 pm70 °FBroken clouds.10 mph57%30.01 "HgN/A
2:00 pm73 °FScattered clouds.12 mph53%30.01 "HgN/A
1:30 pm73 °FScattered clouds.7 mph53%30.01 "HgN/A
1:00 pm73 °FScattered clouds.3 mph47%30.01 "HgN/A
12:30 pm72 °FPartly sunny.5 mph57%30.04 "HgN/A
12:00 pm72 °FPartly sunny.3 mph50%30.04 "HgN/A
11:30 am72 °FPartly sunny.7 mph50%30.04 "Hg5 mi
11:00 am68 °FPartly sunny.9 mph56%30.04 "Hg5 mi
10:30 am66 °FScattered clouds.12 mph64%30.04 "Hg5 mi
10:00 am66 °FScattered clouds.7 mph68%30.04 "Hg4 mi
9:30 am63 °FScattered clouds.1 mph83%30.04 "Hg4 mi
9:00 am63 °FScattered clouds.1 mph83%30.04 "Hg4 mi
1:00 am57 °FPassing clouds.3 mph82%30.04 "HgN/A
Weather by CustomWeather, © 2017

See weather overviewHow to use our weather pages